Hourly Weather Golaszew

Today, 17 January, Sunday

Time Temperature Precipitation Wind Pressure Humidity
00:00 -18°C° 0 mm 5 mps 752 mmHg 89%
01:00 -19°C° 0 mm 5 mps 752 mmHg 90%
02:00 -18°C° 0 mm 4 mps 753 mmHg 90%
03:00 -18°C° 0 mm 4 mps 753 mmHg 90%
04:00 -19°C° 0 mm 4 mps 753 mmHg 90%
05:00 -19°C° 0 mm 4 mps 754 mmHg 91%
06:00 -18°C° 0 mm 3 mps 754 mmHg 91%
07:00 -19°C° 0 mm 3 mps 755 mmHg 92%
08:00 -18°C° 0 mm 3 mps 755 mmHg 91%
09:00 -17°C° 0 mm 2 mps 756 mmHg 90%
10:00 -17°C° 0 mm 2 mps 756 mmHg 89%
11:00 -16°C° 0 mm 2 mps 756 mmHg 87%
12:00 -15°C° 0 mm 2 mps 757 mmHg 85%
13:00 -14°C° 0 mm 2 mps 757 mmHg 84%
14:00 -14°C° 0 mm 2 mps 757 mmHg 86%
15:00 -15°C° 0 mm 2 mps 757 mmHg 88%
16:00 -15°C° 0 mm 2 mps 757 mmHg 90%
17:00 -13°C° 0 mm 1 mps 757 mmHg 89%
18:00 -13°C° 0 mm 1 mps 758 mmHg 89%
19:00 -14°C° 0 mm 1 mps 758 mmHg 89%
20:00 -14°C° 0 mm 1 mps 758 mmHg 89%
21:00 -14°C° 0 mm 1 mps 758 mmHg 88%
22:00 -14°C° 0 mm 0 mps 758 mmHg 88%
23:00 -14°C° 0 mm 1 mps 758 mmHg 88%

Tomorrow, 18 January, Monday

Time Temperature Precipitation Wind Pressure Humidity
00:00 -14°C° 0 mm 1 mps 758 mmHg 88%
01:00 -14°C° 0 mm 1 mps 758 mmHg 88%
02:00 -15°C° 0 mm 1 mps 758 mmHg 89%
03:00 -15°C° 0 mm 1 mps 758 mmHg 89%
04:00 -15°C° 0 mm 1 mps 758 mmHg 90%
05:00 -15°C° 0 mm 1 mps 758 mmHg 90%
06:00 -15°C° 0 mm 0 mps 758 mmHg 89%
07:00 -15°C° 0 mm 0 mps 758 mmHg 89%
08:00 -14°C° 0 mm 0 mps 758 mmHg 87%
09:00 -13°C° 0 mm 1 mps 758 mmHg 85%
10:00 -13°C° 0 mm 1 mps 758 mmHg 83%
11:00 -12°C° 0 mm 1 mps 758 mmHg 81%
12:00 -11°C° 0 mm 1 mps 758 mmHg 80%
13:00 -10°C° 0 mm 1 mps 757 mmHg 78%
14:00 -10°C° 0 mm 1 mps 757 mmHg 81%
15:00 -11°C° 0 mm 1 mps 757 mmHg 84%
16:00 -11°C° 0 mm 1 mps 757 mmHg 87%
17:00 -11°C° 0 mm 1 mps 757 mmHg 88%
18:00 -13°C° 0 mm 2 mps 756 mmHg 89%
19:00 -13°C° 0 mm 2 mps 756 mmHg 89%
20:00 -13°C° 0 mm 2 mps 756 mmHg 89%
21:00 -13°C° 0 mm 2 mps 756 mmHg 90%
22:00 -12°C° 0 mm 2 mps 756 mmHg 90%
23:00 -12°C° 0 mm 2 mps 755 mmHg 90%

Day after tomorrow, 19 January, Tuesday

Time Temperature Precipitation Wind Pressure Humidity
00:00 -10°C° 0 mm 2 mps 755 mmHg 89%
01:00 -10°C° 0 mm 3 mps 754 mmHg 89%
02:00 -10°C° 0.1 mm 3 mps 754 mmHg 91%
03:00 -9°C° 0.1 mm 3 mps 753 mmHg 93%
04:00 -9°C° 0.1 mm 3 mps 753 mmHg 95%
05:00 -8°C° 0.3 mm 3 mps 753 mmHg 95%
06:00 -7°C° 0.3 mm 3 mps 752 mmHg 95%
07:00 -7°C° 0.3 mm 3 mps 752 mmHg 95%
08:00 -6°C° 0.2 mm 3 mps 752 mmHg 96%
09:00 -4°C° 0.2 mm 3 mps 752 mmHg 96%
10:00 -2°C° 0.2 mm 3 mps 751 mmHg 97%
11:00 -2°C° 0.2 mm 3 mps 751 mmHg 97%
12:00 -1°C° 0.2 mm 3 mps 751 mmHg 98%
13:00 -1°C° 0.2 mm 3 mps 750 mmHg 98%
14:00 -1°C° 0.1 mm 3 mps 750 mmHg 98%
15:00 -1°C° 0.1 mm 3 mps 750 mmHg 98%
16:00 -1°C° 0.1 mm 3 mps 750 mmHg 98%
17:00 -1°C° 0.1 mm 3 mps 750 mmHg 97%
18:00 -1°C° 0.1 mm 3 mps 750 mmHg 97%
19:00 -1°C° 0.1 mm 3 mps 750 mmHg 97%
20:00 -1°C° 0.1 mm 3 mps 749 mmHg 96%
21:00 -2°C° 0.1 mm 3 mps 749 mmHg 96%
22:00 -3°C° 0.1 mm 4 mps 749 mmHg 95%
23:00 -3°C° 0 mm 4 mps 749 mmHg 95%

20 January, Wednesday

Time Temperature Precipitation Wind Pressure Humidity
00:00 -3°C° 0 mm 4 mps 749 mmHg 95%
01:00 -3°C° 0 mm 4 mps 748 mmHg 95%
02:00 -3°C° 0.2 mm 4 mps 748 mmHg 95%
03:00 -4°C° 0.2 mm 5 mps 748 mmHg 96%
04:00 -4°C° 0.2 mm 5 mps 748 mmHg 96%
05:00 -3°C° 0.3 mm 4 mps 748 mmHg 96%
06:00 -2°C° 0.3 mm 4 mps 747 mmHg 97%
07:00 -2°C° 0.3 mm 4 mps 747 mmHg 97%
08:00 -1°C° 0.2 mm 4 mps 747 mmHg 98%
09:00 -1°C° 0.2 mm 4 mps 748 mmHg 98%
10:00 -1°C° 0.2 mm 4 mps 748 mmHg 99%
11:00 0°C° 0.2 mm 4 mps 747 mmHg 99%
12:00 0°C° 0.2 mm 4 mps 747 mmHg 99%
13:00 0°C° 0.2 mm 4 mps 747 mmHg 99%
14:00 0°C° 0 mm 4 mps 747 mmHg 97%
15:00 0°C° 0 mm 4 mps 747 mmHg 96%
16:00 0°C° 0 mm 4 mps 747 mmHg 95%
17:00 0°C° 0.1 mm 4 mps 747 mmHg 93%
18:00 0°C° 0.1 mm 4 mps 747 mmHg 92%
19:00 0°C° 0.1 mm 4 mps 747 mmHg 90%
20:00 0°C° 0 mm 4 mps 747 mmHg 89%
21:00 0°C° 0 mm 4 mps 747 mmHg 87%
22:00 0°C° 0 mm 3 mps 747 mmHg 85%
23:00 0°C° 0 mm 3 mps 747 mmHg 84%

21 January, Thursday

Time Temperature Precipitation Wind Pressure Humidity
00:00 0°C° 0 mm 3 mps 747 mmHg 84%
01:00 -1°C° 0 mm 3 mps 747 mmHg 83%
02:00 -1°C° 0 mm 3 mps 747 mmHg 84%
03:00 -1°C° 0 mm 3 mps 747 mmHg 85%
04:00 -3°C° 0 mm 4 mps 746 mmHg 85%
05:00 -2°C° 0 mm 3 mps 746 mmHg 86%
06:00 -2°C° 0 mm 3 mps 746 mmHg 87%
07:00 -2°C° 0 mm 3 mps 746 mmHg 87%
08:00 -1°C° 0 mm 3 mps 746 mmHg 87%
09:00 0°C° 0 mm 3 mps 745 mmHg 86%
10:00 0°C° 0 mm 3 mps 745 mmHg 86%
11:00 +1°C° 0 mm 3 mps 745 mmHg 88%
12:00 0°C° 0 mm 4 mps 744 mmHg 90%
13:00 +1°C° 0 mm 4 mps 744 mmHg 91%
14:00 0°C° 0 mm 4 mps 744 mmHg 91%
15:00 0°C° 0 mm 4 mps 743 mmHg 91%
16:00 0°C° 0 mm 4 mps 743 mmHg 91%
17:00 0°C° 0 mm 4 mps 743 mmHg 91%
18:00 0°C° 0 mm 4 mps 743 mmHg 92%
19:00 0°C° 0 mm 4 mps 743 mmHg 92%
20:00 0°C° 0 mm 4 mps 744 mmHg 91%
21:00 0°C° 0 mm 4 mps 744 mmHg 90%
22:00 -1°C° 0 mm 5 mps 744 mmHg 89%
23:00 -1°C° 0 mm 4 mps 745 mmHg 89%

22 January, Friday

Time Temperature Precipitation Wind Pressure Humidity
00:00 -1°C° 0 mm 4 mps 745 mmHg 88%
01:00 -1°C° 0 mm 3 mps 745 mmHg 88%
02:00 -1°C° 0 mm 3 mps 745 mmHg 88%
03:00 -1°C° 0 mm 3 mps 745 mmHg 88%
04:00 -1°C° 0 mm 3 mps 745 mmHg 87%
05:00 -1°C° 0 mm 3 mps 745 mmHg 87%
06:00 -1°C° 0 mm 3 mps 744 mmHg 87%
07:00 -1°C° 0 mm 3 mps 744 mmHg 86%
08:00 0°C° 0 mm 3 mps 744 mmHg 88%
09:00 0°C° 0 mm 3 mps 744 mmHg 89%
10:00 +1°C° 0 mm 3 mps 744 mmHg 90%
11:00 +1°C° 0 mm 3 mps 743 mmHg 92%
12:00 +2°C° 0 mm 3 mps 743 mmHg 94%
13:00 +2°C° 0 mm 3 mps 743 mmHg 95%
14:00 +2°C° 0 mm 3 mps 742 mmHg 96%
15:00 +1°C° 0 mm 3 mps 742 mmHg 96%
16:00 +1°C° 0 mm 3 mps 742 mmHg 96%
17:00 +1°C° 0.4 mm 3 mps 741 mmHg 96%
18:00 +1°C° 0.4 mm 3 mps 741 mmHg 97%
19:00 +1°C° 0.4 mm 3 mps 741 mmHg 97%
20:00 +1°C° 0.8 mm 3 mps 741 mmHg 97%
21:00 +1°C° 0.8 mm 3 mps 740 mmHg 97%
22:00 +1°C° 0.8 mm 3 mps 740 mmHg 97%
23:00 +2°C° 0.1 mm 2 mps 740 mmHg 97%
Show more

We Need Your Consent

Meteoprog and our Service Providers may store and access personal data such as cookies, device identifiers or other similar technologies on your device and process such data to personalise content and ads, as well as provide social media features and to analyse the traffic.

  • Store and/or access information on your device

    Cookies, device identifiers or other information can be stored or accessed on your device for the purposes indicated above.

  • Personalised ads and content, ad and content measurement, audience insights, and products development

    Ads and content can be personalised based on a profile. More data can be added to better personalise ads and content. Ad and content performance can be measured. Insights about the audience who saw the ads and content can be derived. Such data can be used to develop or improve user’s experience, systems and software.

By clicking ‘I Agree’ you will allow the use of indicated cookies, device identifiers, web beacons or other similar technologies. Your settings can be changed in the browser on your device.

For certain purposes, legitimate interests may be relied on, rather than consent. You can read more about this in our Privacy and Cookie Policy.